[[{"header":{"parameterUnit":"m.s-1","parameterCategory":2,"la1":30.2991,"la2":30.254,"lo1":-89.0895,"lo2":-89.0444,"dy":0.0017,"dx":0.0017,"nx":28,"ny":28,"refTime":"2023-08-09T09:00:00:Z","depth":"0","parameterNumber":2,"parameterNumberName":"U-component_of_CURRENTS"},"data":[0,0,0,0,0,0,0,0,0,0,0,0,0,0,0,0,0,0,0,0,0,0,0,0,0,0,0,0,0,0,0,0,0,0,0,0,0,0,0,0,0,0,0,0,0,0,0,0,0,0,0,0,0,0,0,0,0,0,0.4912,0.4911,0,0.4859,0.4859,0.4858,0.4921,0.4923,0.4925,0.4927,0.5021,0.5022,0.5022,0,0,0,0,0,0,0,0,0,0,0,0,0,0.498,0.498,0.4912,0.4911,0.491,0.4859,0.4859,0.4858,0.492,0.4923,0.4926,0.4928,0.5021,0.5022,0.5022,0,0,0,0,0,0,0,0,0,0,0,0,0,0.4943,0.4979,0.4912,0.4934,0.4936,0.4859,0.4859,0.4858,0.492,0.4923,0.4926,0.4929,0.5021,0.5021,0.5022,0.496,0,0,0.5024,0.5024,0,0,0,0,0,0,0,0,0.4945,0.4941,0.4932,0.4932,0.4934,0.4899,0.4917,0.4899,0.4919,0.4927,0.4927,0.4931,0.499,0.4994,0.4976,0.4964,0.4968,0.5024,0.5025,0.5025,0.5025,0,0,0,0,0,0,0,0.4948,0.4943,0.4892,0.493,0.4932,0.4917,0.4917,0.4913,0.4945,0.4927,0.4931,0.4922,0.4993,0.4975,0.4979,0.497,0.5024,0.5025,0.5025,0.5025,0.5015,0.5015,0,0,0,0,0,0,0.4952,0.4945,0.4894,0.4891,0.4946,0.4914,0.4913,0.4908,0.4942,0.4948,0.4919,0.4925,0.4973,0.4979,0.4983,0.4965,0.5025,0.5026,0.5026,0.5016,0.5015,0.5015,0,0,0,0,0,0,0.4954,0.4948,0.4896,0.4916,0.4908,0.4909,0.4903,0.4905,0.4895,0.4934,0.4945,0.4908,0.4975,0.4982,0.4992,0.4968,0.5026,0.5026,0.5017,0.5016,0.5015,0.4895,0,0,0,0,0,0,0.4956,0.4949,0.4932,0.4916,0.4907,0.4842,0.4899,0.4901,0.4883,0.4891,0.4927,0.4939,0.4979,0.499,0.4992,0.497,0.5027,0.5018,0.5016,0.5015,0.49,0.489,0.4882,0,0,0,0,0,0.4959,0.4917,0.4932,0.4925,0.4889,0.484,0.4833,0.4846,0.488,0.4854,0.4898,0.4939,0.4985,0.4989,0.4992,0.4969,0.5018,0.5017,0.5015,0.4904,0.4892,0.4882,0,0,0,0,0,0,0.4905,0.4918,0.4935,0.4892,0.4867,0.485,0.4814,0.4832,0.4839,0.4853,0.4913,0.4925,0.4933,0.4962,0.4966,0.4968,0.5014,0.5013,0.4928,0.4918,0.4909,0.4925,0.5028,0,0,0,0,0,0.4891,0.4884,0.4876,0.4834,0.4821,0.4817,0.4796,0.4805,0.4811,0.4817,0.4843,0.4884,0.4921,0.493,0.4957,0.4933,0.5007,0.4929,0.492,0.4912,0.493,0.505,0.5054,0.501,0.501,0.501,0,0,0.4854,0.4858,0.485,0.4824,0.4806,0.4759,0.4812,0.4767,0.4739,0.4825,0.4792,0.4847,0.4911,0.4905,0.4911,0.4928,0.4949,0.491,0.4902,0.4926,0.5049,0.5053,0.5057,0.5009,0.5009,0.5009,0,0,0.4772,0.478,0.4751,0.4729,0.4703,0.4698,0.4685,0.4665,0.4672,0.4643,0.4723,0.4769,0.4774,0.4834,0.4866,0.4819,0.4903,0.4822,0.4777,0.4891,0.4896,0.4902,0.4938,0.4948,0.481,0.4809,0.4809,0,0.4725,0.4691,0.4721,0.4677,0.4645,0.467,0.4608,0.4601,0.4588,0.4604,0.4621,0.4703,0.4747,0.4799,0.4792,0.4799,0.4862,0.4806,0.4881,0.4889,0.4897,0.4933,0.4946,0.4804,0.4804,0.4805,0.4805,0,0.4627,0.4594,0.4558,0.4532,0.45,0.4441,0.4445,0.443,0.4445,0.4465,0.4509,0.4579,0.4652,0.4659,0.4708,0.4783,0.4803,0.486,0.4907,0.4894,0.4932,0.4947,0.4795,0.4797,0.4799,0.48,0,0,0.4536,0.4503,0.4486,0.4459,0.4422,0.4382,0.4346,0.4333,0.4344,0.4356,0.4387,0.4454,0.4537,0.4584,0.4661,0.4746,0.4827,0.4819,0.4828,0.4851,0.5036,0.4819,0.4816,0.4911,0.4915,0.4918,0.5016,0,0.4443,0.4343,0.4355,0.4252,0.42,0.4225,0.4197,0.4203,0.4235,0.4271,0.4377,0.4434,0.4495,0.4549,0.4645,0.4806,0.4874,0.4792,0.5051,0.5057,0.4866,0.483,0.4579,0.4627,0.5032,0.5034,0.5036,0,0.434,0.4296,0.4185,0.4147,0.4128,0.4083,0.4077,0.406,0.4141,0.4179,0.4275,0.4375,0.4503,0.4564,0.481,0.4761,0.4891,0.4996,0.5004,0.4866,0.4871,0.4721,0.4642,0.4487,0.5061,0.5059,0.5058,0,0.4259,0.4173,0.4088,0.4062,0.4026,0.4005,0.3992,0.4037,0.4042,0.4147,0.418,0.4353,0.4441,0.4649,0.4837,0.4858,0.5092,0.5153,0.5065,0.505,0.4918,0.4883,0.4722,0.5332,0.5332,0.5331,0.5331,0,0.4155,0.4084,0.4049,0.4002,0.3933,0.3938,0.3902,0.3932,0.3988,0.4005,0.4147,0.4207,0.448,0.4634,0.4828,0.495,0.5089,0.5045,0.5067,0.4855,0.4816,0.4743,0.4749,0.5335,0.5334,0.5334,0.5333,0,0.4073,0.4039,0.3955,0.3911,0.3894,0.3849,0.3822,0.3818,0.3877,0.3911,0.3944,0.4118,0.4307,0.4521,0.4836,0.4886,0.4904,0.508,0.475,0.4728,0.4443,0.4454,0.4248,0.4157,0.4989,0.4984,0.498,0,0.402,0.3969,0.3894,0.3849,0.3825,0.3767,0.374,0.3763,0.3763,0.3854,0.3873,0.4035,0.4134,0.4414,0.4555,0.4755,0.4742,0.4607,0.4591,0.4352,0.4388,0.4262,0.4196,0.4369,0.436,0.4353,0.4347,0,0.3946,0.3924,0.3869,0.3775,0.3719,0.3646,0.361,0.3586,0.3631,0.3638,0.3686,0.3764,0.3974,0.4047,0.4231,0.4337,0.4308,0.446,0.4352,0.3971,0.3699,0.3645,0.4338,0.4284,0.4291,0.4295,0.4299,0.4301,0.3907,0.3852,0.3784,0.3673,0.3615,0.3516,0.3409,0.3398,0.3343,0.3298,0.347,0.3454,0.36,0.3806,0.3857,0.3702,0.3881,0.3669,0.373,0.3642,0.3435,0.3907,0.3785,0.3788,0.3791,0.3794,0.3796,0,0.3803,0.3746,0.3677,0.3522,0.3402,0.3404,0.3305,0.3171,0.3045,0.3062,0.3048,0.3021,0.3054,0.3153,0.3124,0.3018,0.2931,0.2968,0.2789,0.2797,0.3334,0.318,0.2749,0.2749,0.2749,0.2749,0.275,0.275,0.3745,0.3627,0.3566,0.3329,0.3227,0.2994,0.2897,0.2752,0.2689,0.2502,0.2411,0.2482,0.2625,0.2637,0.2501,0.2457,0.2349,0.2202,0.2328,0.2744,0.2815,0.2882,0.2732,0.2213,0.2213,0.161,0.1606,0.1603]},{"header":{"parameterUnit":"m.s-1","parameterCategory":2,"la1":30.2991,"la2":30.254,"lo1":-89.0895,"lo2":-89.0444,"dy":0.0017,"dx":0.0017,"nx":28,"ny":28,"refTime":"2023-08-09T09:00:00:Z","depth":"0","parameterNumber":3,"parameterNumberName":"V-component_of_CURRENTS"},"data":[0,0,0,0,0,0,0,0,0,0,0,0,0,0,0,0,0,0,0,0,0,0,0,0,0,0,0,0,0,0,0,0,0,0,0,0,0,0,0,0,0,0,0,0,0,0,0,0,0,0,0,0,0,0,0,0,0,0,0.1501,0.1502,0,0.1625,0.1627,0.1628,0.1679,0.1679,0.1678,0.1678,0.1753,0.1755,0.1758,0,0,0,0,0,0,0,0,0,0,0,0,0,0.1251,0.1256,0.1501,0.1502,0.1503,0.1625,0.1627,0.1629,0.168,0.1679,0.1678,0.1678,0.1752,0.1755,0.1758,0,0,0,0,0,0,0,0,0,0,0,0,0,0.1368,0.1257,0.1501,0.1541,0.1546,0.1624,0.1627,0.1629,0.168,0.1679,0.1678,0.1677,0.1751,0.1755,0.1758,0.1797,0,0,0.177,0.1771,0,0,0,0,0,0,0,0,0.1362,0.1378,0.1534,0.1539,0.1544,0.1634,0.1566,0.1682,0.168,0.1632,0.1678,0.1677,0.1707,0.1715,0.1744,0.18,0.1804,0.177,0.1772,0.1774,0.1775,0,0,0,0,0,0,0,0.1354,0.1372,0.1553,0.1535,0.1542,0.1534,0.155,0.1588,0.1673,0.1636,0.1639,0.1649,0.171,0.1741,0.1746,0.1805,0.177,0.1773,0.1776,0.1777,0.1868,0.1868,0,0,0,0,0,0,0.1338,0.1366,0.1549,0.1556,0.1446,0.1539,0.1558,0.1608,0.1674,0.1683,0.165,0.1651,0.1735,0.1742,0.1749,0.1815,0.1774,0.1777,0.178,0.1868,0.1868,0.1868,0,0,0,0,0,0,0.1333,0.1355,0.1544,0.1458,0.1481,0.1544,0.16,0.1611,0.1647,0.1685,0.1693,0.1675,0.1734,0.1744,0.1814,0.1817,0.1779,0.1783,0.1868,0.1868,0.1868,0.1936,0,0,0,0,0,0,0.1326,0.1353,0.1383,0.1459,0.1486,0.1614,0.1601,0.1614,0.1653,0.1656,0.1709,0.1715,0.1734,0.1808,0.1817,0.1821,0.1785,0.1867,0.1868,0.1868,0.1933,0.1938,0.1942,0,0,0,0,0,0.1317,0.1362,0.1385,0.1406,0.1527,0.1616,0.1631,0.1671,0.1654,0.1695,0.173,0.1714,0.1814,0.1814,0.1824,0.1829,0.1867,0.1868,0.1868,0.1931,0.1937,0.1942,0,0,0,0,0,0,0.1259,0.1374,0.1399,0.1475,0.1549,0.1624,0.1653,0.1675,0.1735,0.1729,0.1752,0.1764,0.1817,0.1814,0.1812,0.1849,0.1823,0.1825,0.1867,0.1873,0.1877,0.1859,0.1789,0,0,0,0,0,0.1262,0.1338,0.143,0.1492,0.1526,0.1588,0.1623,0.1659,0.1716,0.1742,0.1778,0.1797,0.1826,0.1845,0.1877,0.1919,0.188,0.1913,0.1917,0.1922,0.191,0.1868,0.1868,0.187,0.187,0.187,0,0,0.1248,0.1325,0.1362,0.1485,0.1536,0.1604,0.1609,0.1676,0.1722,0.1739,0.1808,0.1831,0.1843,0.1894,0.1911,0.1894,0.1903,0.1922,0.1926,0.1912,0.1868,0.1868,0.1868,0.187,0.187,0.187,0,0,0.1264,0.1336,0.1401,0.147,0.1564,0.1614,0.1633,0.1722,0.1753,0.1833,0.1836,0.1866,0.1927,0.1934,0.194,0.1983,0.1936,0.1978,0.1988,0.1949,0.1948,0.1947,0.1909,0.1904,0.1972,0.1973,0.1973,0,0.1237,0.1346,0.1428,0.1504,0.1548,0.1617,0.1675,0.173,0.1829,0.1852,0.1858,0.1922,0.1936,0.1967,0.1981,0.1993,0.1963,0.1975,0.1955,0.1953,0.1951,0.1912,0.1905,0.1976,0.1975,0.1975,0.1975,0,0.13,0.1386,0.1424,0.1551,0.1612,0.1678,0.1758,0.182,0.1853,0.1896,0.1948,0.1978,0.2003,0.2005,0.2014,0.2003,0.1987,0.1975,0.1944,0.1955,0.1913,0.1905,0.1981,0.1979,0.1978,0.1978,0,0,0.1239,0.1433,0.1441,0.1509,0.1639,0.1697,0.1776,0.1866,0.1909,0.1971,0.2008,0.2044,0.2043,0.2046,0.2047,0.2013,0.1981,0.1989,0.1986,0.1956,0.1894,0.181,0.1793,0.1971,0.1969,0.1968,0.1876,0,0.1258,0.1399,0.1485,0.1597,0.1675,0.1757,0.1826,0.1908,0.1972,0.2034,0.2035,0.2078,0.2062,0.2075,0.2041,0.2004,0.1962,0.2007,0.1882,0.1878,0.1806,0.1781,0.1764,0.1672,0.1868,0.1866,0.1865,0,0.1284,0.1384,0.1495,0.1646,0.1679,0.1741,0.1853,0.193,0.2022,0.2062,0.2094,0.2115,0.2097,0.2074,0.1986,0.2018,0.1953,0.1911,0.1906,0.1792,0.1778,0.1689,0.165,0.1552,0.1853,0.1854,0.1854,0,0.1218,0.1384,0.147,0.1521,0.1696,0.1736,0.1813,0.1926,0.1986,0.2075,0.211,0.2113,0.2104,0.203,0.1954,0.1968,0.1842,0.1846,0.1706,0.17,0.1639,0.1628,0.1489,0.1758,0.1758,0.1759,0.1759,0,0.122,0.1285,0.1444,0.1499,0.1581,0.1701,0.1784,0.1873,0.1973,0.2037,0.2103,0.2133,0.2088,0.2035,0.1953,0.1796,0.183,0.1688,0.166,0.1662,0.1655,0.1528,0.1509,0.1755,0.1756,0.1757,0.1757,0,0.1152,0.1262,0.1367,0.1524,0.1567,0.1618,0.176,0.1829,0.1927,0.2008,0.203,0.2116,0.2055,0.1991,0.1876,0.1777,0.1594,0.1587,0.1592,0.1564,0.1326,0.1312,0.1162,0.1155,0.1407,0.1405,0.1402,0,0.1138,0.1193,0.135,0.14,0.1469,0.1564,0.1641,0.1781,0.1864,0.1994,0.2027,0.2026,0.2042,0.1853,0.1696,0.1522,0.1487,0.1371,0.1376,0.1282,0.1247,0.1272,0.1282,0.1335,0.1332,0.133,0.1328,0,0.1107,0.1154,0.1242,0.1343,0.1422,0.1522,0.1641,0.1694,0.1858,0.1927,0.2013,0.2036,0.1908,0.1765,0.1543,0.1417,0.132,0.1315,0.1221,0.1163,0.1179,0.117,0.1434,0.1308,0.131,0.1312,0.1313,0.1314,0.1063,0.1099,0.1213,0.1295,0.1385,0.1485,0.1537,0.1662,0.177,0.1875,0.1947,0.1963,0.1817,0.1529,0.1372,0.1054,0.1141,0.0973,0.0962,0.0993,0.0982,0.1187,0.1023,0.1024,0.1024,0.1024,0.1024,0,0.1029,0.1091,0.1166,0.1282,0.1345,0.1418,0.1548,0.1585,0.1674,0.1791,0.1851,0.1771,0.154,0.1319,0.0937,0.0754,0.0766,0.0662,0.0712,0.0739,0.0907,0.0897,0.0694,0.0694,0.0694,0.0694,0.0694,0.0694,0.1028,0.1087,0.1134,0.1229,0.1295,0.135,0.1403,0.1456,0.1538,0.1587,0.161,0.1679,0.1594,0.0957,0.0564,0.0479,0.045,0.0417,0.0414,0.0529,0.0559,0.0587,0.0571,0.0302,0.0302,0.0293,0.0292,0.0292]}],[{"header":{"parameterUnit":"m.s-1","parameterCategory":2,"la1":30.2991,"la2":30.254,"lo1":-89.0895,"lo2":-89.0444,"dy":0.0017,"dx":0.0017,"nx":28,"ny":28,"refTime":"2023-08-09T09:00:00:Z","depth":"2","parameterNumber":2,"parameterNumberName":"U-component_of_CURRENTS"},"data":[0,0,0,0,0,0,0,0,0,0,0,0,0,0,0,0,0,0,0,0,0,0,0,0,0,0,0,0,0,0,0,0,0,0,0,0,0,0,0,0,0,0,0,0,0,0,0,0,0,0,0,0,0,0,0,0,0,0,0.2253,0.2254,0,0.2381,0.2383,0.2385,0.2753,0.2761,0.2769,0.2776,0.3004,0.3003,0.3002,0,0,0,0,0,0,0,0,0,0,0,0,0,0.2107,0.2109,0.2253,0.2254,0.2255,0.2381,0.2383,0.2385,0.2752,0.2761,0.2771,0.278,0.3005,0.3003,0.3002,0,0,0,0,0,0,0,0,0,0,0,0,0,0.2199,0.211,0.2253,0.2452,0.247,0.2381,0.2383,0.2386,0.275,0.2762,0.2773,0.2784,0.3005,0.3003,0.3002,0.2758,0,0,0.2996,0.2996,0,0,0,0,0,0,0,0,0.2194,0.2205,0.2421,0.2438,0.2459,0.2561,0.2415,0.2514,0.2747,0.2647,0.2776,0.279,0.2854,0.2866,0.2867,0.2769,0.2778,0.2996,0.2995,0.2994,0.2994,0,0,0,0,0,0,0,0.2187,0.22,0.2307,0.2421,0.2444,0.2459,0.2488,0.2435,0.2688,0.2656,0.2683,0.2689,0.2868,0.2867,0.2875,0.2782,0.2996,0.2995,0.2994,0.2993,0.3007,0.3009,0,0,0,0,0,0,0.2164,0.2194,0.2303,0.231,0.2349,0.2453,0.2485,0.2518,0.2687,0.2722,0.2678,0.2705,0.2865,0.2877,0.2885,0.2997,0.2994,0.2993,0.2992,0.3006,0.3008,0.3009,0,0,0,0,0,0,0.216,0.2173,0.2297,0.2251,0.2269,0.2445,0.2478,0.2515,0.2628,0.2702,0.2744,0.2769,0.2874,0.2887,0.2941,0.2995,0.2992,0.299,0.3004,0.3006,0.3008,0.297,0,0,0,0,0,0,0.2156,0.2171,0.2219,0.225,0.2271,0.231,0.2468,0.2509,0.2605,0.2645,0.2787,0.2816,0.2884,0.2943,0.2939,0.2993,0.2989,0.3002,0.3005,0.3008,0.297,0.2971,0.2972,0,0,0,0,0,0.215,0.2166,0.2221,0.2236,0.2321,0.2308,0.2321,0.2484,0.2599,0.2633,0.2749,0.2818,0.2963,0.2938,0.2935,0.299,0.3001,0.3004,0.3008,0.2969,0.2971,0.2972,0,0,0,0,0,0,0.2183,0.2204,0.2267,0.2311,0.2334,0.2373,0.2409,0.2491,0.2596,0.2662,0.2769,0.28,0.2879,0.2912,0.2885,0.3011,0.3015,0.3017,0.2988,0.2989,0.299,0.298,0.2988,0,0,0,0,0,0.2181,0.218,0.2217,0.2252,0.2259,0.233,0.236,0.2449,0.2519,0.2587,0.268,0.2787,0.2851,0.2913,0.295,0.2954,0.2959,0.3012,0.3013,0.3013,0.3007,0.3057,0.3061,0.302,0.302,0.302,0,0,0.2174,0.221,0.2202,0.2251,0.2282,0.229,0.2384,0.2419,0.2474,0.2571,0.2689,0.2757,0.2847,0.2911,0.2954,0.2971,0.3019,0.3017,0.3017,0.3011,0.3061,0.3065,0.3068,0.3022,0.3021,0.3021,0,0,0.216,0.2213,0.2211,0.2217,0.2263,0.2286,0.2306,0.2362,0.246,0.2502,0.2633,0.2724,0.2803,0.2899,0.2952,0.2953,0.3002,0.3013,0.3025,0.3074,0.3077,0.308,0.3041,0.3041,0.3039,0.3039,0.3039,0,0.2171,0.2198,0.2207,0.2222,0.2236,0.2291,0.2301,0.2348,0.2435,0.2498,0.2564,0.2737,0.2796,0.291,0.2952,0.2954,0.2973,0.3009,0.3072,0.3075,0.3079,0.3039,0.3039,0.3037,0.3038,0.3038,0.3038,0,0.2164,0.2187,0.2174,0.2212,0.2227,0.2217,0.2267,0.2329,0.2428,0.2493,0.2624,0.2696,0.2836,0.2872,0.2911,0.3001,0.2997,0.3041,0.3058,0.308,0.3037,0.3038,0.3035,0.3036,0.3036,0.3037,0,0,0.2184,0.2162,0.2184,0.2181,0.2217,0.2217,0.2285,0.2353,0.2442,0.2531,0.2649,0.2751,0.2832,0.2895,0.2973,0.3013,0.302,0.3052,0.3055,0.2992,0.3083,0.2807,0.2781,0.3102,0.3104,0.3105,0.3022,0,0.219,0.2188,0.2201,0.2198,0.2173,0.2228,0.2286,0.2368,0.2463,0.2575,0.268,0.28,0.2835,0.2928,0.297,0.3032,0.3032,0.3035,0.309,0.3089,0.2825,0.2776,0.2687,0.2584,0.3023,0.3023,0.3023,0,0.2234,0.2201,0.2201,0.2174,0.2184,0.2223,0.2338,0.2391,0.2539,0.2625,0.2763,0.2849,0.2955,0.2967,0.305,0.3069,0.3062,0.3069,0.3068,0.2825,0.2815,0.2647,0.2569,0.3025,0.3025,0.3024,0.3024,0,0.227,0.2227,0.2224,0.2211,0.2196,0.2263,0.2309,0.2445,0.2515,0.2685,0.2763,0.2898,0.2994,0.3032,0.306,0.3083,0.3095,0.3132,0.2848,0.2827,0.2761,0.2729,0.313,0.313,0.313,0.313,0.3131,0,0.2286,0.2302,0.2242,0.2233,0.2283,0.2279,0.2394,0.2489,0.2594,0.2687,0.281,0.2907,0.3025,0.3061,0.3059,0.2932,0.3101,0.2802,0.2785,0.2734,0.2703,0.3119,0.3119,0.3127,0.3128,0.3129,0.3129,0,0.2394,0.2346,0.2326,0.2286,0.2309,0.2376,0.2454,0.2507,0.2614,0.2741,0.2798,0.2933,0.2983,0.3004,0.3046,0.2897,0.2826,0.2733,0.2602,0.2564,0.2514,0.2514,0.2381,0.237,0.2362,0.2354,0.2348,0,0.2463,0.2437,0.2405,0.2425,0.2441,0.2499,0.2544,0.2585,0.2621,0.2757,0.2804,0.2884,0.2891,0.277,0.2642,0.2486,0.2646,0.2197,0.2174,0.2438,0.2437,0.2451,0.2462,0.2083,0.2075,0.2069,0.2064,0,0.2543,0.255,0.252,0.2539,0.2578,0.2594,0.2641,0.2631,0.2668,0.2714,0.2788,0.2782,0.268,0.2452,0.2165,0.2089,0.2205,0.204,0.2436,0.2236,0.2137,0.2142,0.2168,0.2006,0.2012,0.2016,0.2019,0.2022,0.2654,0.2639,0.2592,0.2636,0.2678,0.2678,0.2623,0.2615,0.2601,0.254,0.2619,0.2485,0.2234,0.1756,0.1671,0.1669,0.1745,0.1633,0.1665,0.1701,0.163,0.1515,0.1252,0.1254,0.1255,0.1256,0.1257,0,0.272,0.2675,0.2685,0.2668,0.2662,0.2713,0.2659,0.2507,0.2413,0.2368,0.2304,0.1825,0.1523,0.1475,0.135,0.1144,0.1305,0.1135,0.1384,0.1434,0.1481,0.1414,0.0972,0.0972,0.0971,0.0971,0,0,0.276,0.2724,0.2676,0.2642,0.2629,0.2528,0.2447,0.2282,0.2177,0.1938,0.1795,0.1499,0.139,0.1109,0.1002,0.1058,0.1303,0.1056,0.128,0.1634,0.1684,0.1736,0.1677,0,0,0,0,0]},{"header":{"parameterUnit":"m.s-1","parameterCategory":2,"la1":30.2991,"la2":30.254,"lo1":-89.0895,"lo2":-89.0444,"dy":0.0017,"dx":0.0017,"nx":28,"ny":28,"refTime":"2023-08-09T09:00:00:Z","depth":"2","parameterNumber":3,"parameterNumberName":"V-component_of_CURRENTS"},"data":[0,0,0,0,0,0,0,0,0,0,0,0,0,0,0,0,0,0,0,0,0,0,0,0,0,0,0,0,0,0,0,0,0,0,0,0,0,0,0,0,0,0,0,0,0,0,0,0,0,0,0,0,0,0,0,0,0,0,0.0003,0.0003,0,0.0045,0.0045,0.0046,0.0049,0.0049,0.0049,0.0049,0.0009,0.0009,0.0008,0,0,0,0,0,0,0,0,0,0,0,0,0,-0.0098,-0.0096,0.0003,0.0003,0.0004,0.0045,0.0045,0.0046,0.005,0.0049,0.0049,0.0048,0.001,0.0009,0.0008,0,0,0,0,0,0,0,0,0,0,0,0,0,-0.0056,-0.0096,0.0003,0.0012,0.0013,0.0045,0.0045,0.0046,0.005,0.0049,0.0049,0.0048,0.001,0.0009,0.0008,0.001,0,0,0.0004,0.0004,0,0,0,0,0,0,0,0,-0.0059,-0.0053,0.001,0.0011,0.0013,0.0043,-0.0005,0.003,0.005,0.0034,0.0049,0.0048,0.0014,0.0013,0.0021,0.0008,0.0007,0.0004,0.0003,0.0003,0.0003,0,0,0,0,0,0,0,-0.0062,-0.0055,0.0018,0.0011,0.0012,0.0006,0.0011,0.0002,0.0024,0.0036,0.0036,0.0043,0.0014,0.0022,0.002,0.0006,0.0004,0.0003,0.0003,0.0002,0.0108,0.0111,0,0,0,0,0,0,-0.0062,-0.0057,0.0017,0.0019,-0.0023,0.0008,0.0014,0.0032,0.0026,0.0025,0.0044,0.0043,0.0024,0.0021,0.0018,0.0107,0.0003,0.0002,0.0001,0.0104,0.0108,0.0112,0,0,0,0,0,0,-0.0064,-0.0055,0.0015,-0.0018,-0.0009,0.0011,0.0031,0.0034,0.0045,0.0033,0.0031,0.0053,0.0024,0.002,0.0048,0.0102,0.0001,0.0,0.01,0.0105,0.011,0.0228,0,0,0,0,0,0,-0.0067,-0.0056,-0.0039,-0.0017,-0.0007,0.006,0.0032,0.0035,0.0051,0.0051,0.004,0.0036,0.0023,0.0051,0.0047,0.0098,-0.0,0.0096,0.0102,0.0109,0.022,0.0237,0.0251,0,0,0,0,0,-0.007,-0.0033,-0.0039,-0.003,0.0014,0.0062,0.0067,0.0077,0.0052,0.008,0.0079,0.0037,0.009,0.0052,0.0048,0.0099,0.0092,0.0101,0.0108,0.0213,0.0233,0.0251,0,0,0,0,0,0,-0.0054,-0.0029,-0.0034,0.0012,0.0041,0.0063,0.0086,0.0081,0.0101,0.0092,0.0069,0.0067,0.0114,0.0095,0.0054,0.0155,0.0089,0.0096,0.017,0.0189,0.0204,0.0197,-0.0001,0,0,0,0,0,-0.0047,-0.0023,0.0005,0.0042,0.0055,0.0065,0.0082,0.0088,0.0105,0.0112,0.0109,0.0115,0.0144,0.0155,0.0166,0.021,0.0139,0.0248,0.0263,0.0276,0.0272,0.0211,0.0219,0.0138,0.0138,0.0138,0,0,-0.0033,-0.0015,-0.0002,0.0045,0.0059,0.0114,0.0075,0.0109,0.0164,0.0103,0.0167,0.0158,0.0166,0.023,0.025,0.022,0.0268,0.0286,0.0297,0.0285,0.022,0.0227,0.0233,0.0143,0.0142,0.0141,0,0,0.0013,0.0025,0.0059,0.0091,0.0123,0.0146,0.0157,0.0185,0.0207,0.0262,0.0245,0.0268,0.0302,0.0329,0.0345,0.045,0.0346,0.0462,0.0537,0.0481,0.0485,0.0488,0.0414,0.0409,0.0477,0.0477,0.0478,0,0.0026,0.0076,0.008,0.013,0.0167,0.0165,0.0225,0.0265,0.0302,0.0331,0.0302,0.0365,0.0356,0.0444,0.0487,0.0483,0.0417,0.0461,0.0495,0.0497,0.0498,0.042,0.0414,0.0484,0.0483,0.0483,0.0482,0,0.0108,0.0143,0.017,0.0234,0.0283,0.0329,0.0385,0.0435,0.0445,0.0471,0.0538,0.0529,0.056,0.058,0.0563,0.0601,0.0541,0.051,0.0434,0.0512,0.0427,0.0418,0.0493,0.0491,0.0489,0.0487,0,0,0.014,0.0209,0.0219,0.0254,0.0334,0.0384,0.0492,0.0582,0.0644,0.0671,0.0741,0.0783,0.0739,0.0754,0.0733,0.0695,0.0645,0.0609,0.0603,0.0512,0.0493,0.0525,0.0516,0.0604,0.0604,0.0603,0.043,0,0.0194,0.0286,0.0323,0.0428,0.0477,0.053,0.0632,0.0715,0.0767,0.0838,0.0838,0.0879,0.0823,0.0821,0.0784,0.0694,0.0626,0.0694,0.0451,0.0444,0.0443,0.051,0.0472,0.0322,0.042,0.0418,0.0417,0,0.0269,0.031,0.0406,0.0504,0.0535,0.0608,0.0751,0.0838,0.0946,0.0976,0.1013,0.1,0.1001,0.0906,0.0768,0.0808,0.0647,0.0552,0.0542,0.052,0.046,0.0262,0.03,0.04,0.0402,0.0403,0.0404,0,0.0283,0.038,0.045,0.0486,0.0601,0.0663,0.0737,0.0865,0.0947,0.1038,0.1085,0.1084,0.107,0.0912,0.0752,0.0733,0.0562,0.0508,0.0377,0.0375,0.0272,0.0265,0.0345,0.0345,0.0346,0.0346,0.0347,0,0.0328,0.038,0.0449,0.0486,0.059,0.0662,0.0786,0.0875,0.0986,0.1093,0.112,0.1185,0.1058,0.0977,0.0782,0.0587,0.0575,0.0394,0.0344,0.0318,0.0318,0.0328,0.0329,0.0339,0.0341,0.0342,0.0343,0,0.0329,0.0373,0.0449,0.0549,0.0592,0.0659,0.0806,0.0894,0.099,0.1128,0.1153,0.1235,0.1145,0.1005,0.0768,0.0635,0.0434,0.0336,0.0325,0.028,0.026,0.0269,0.0171,0.0171,0.0171,0.0171,0.0171,0,0.0332,0.0367,0.0482,0.0535,0.0573,0.0676,0.0764,0.0883,0.0981,0.1165,0.1231,0.1226,0.1233,0.0965,0.0724,0.0423,0.0398,0.0215,0.0188,0.0286,0.0246,0.0256,0.0265,0.0073,0.0072,0.0071,0.0071,0,0.0328,0.0368,0.043,0.0542,0.0623,0.0745,0.0866,0.0943,0.1101,0.1218,0.1362,0.1375,0.1172,0.0906,0.0568,0.0389,0.0287,0.0194,0.0276,0.0166,0.0191,0.0154,0.0165,0.0065,0.0065,0.0066,0.0066,0.0066,0.032,0.0365,0.0458,0.0557,0.0687,0.0833,0.0902,0.1036,0.1193,0.1326,0.1369,0.1336,0.0993,0.0534,0.0337,0.0218,0.02,0.0082,0.0083,0.0085,0.0149,0.0178,0.0057,0.0057,0.0058,0.0058,0.0059,0,0.0324,0.039,0.0481,0.0626,0.0769,0.0844,0.1005,0.1045,0.1208,0.1278,0.1335,0.0963,0.068,0.0433,0.0207,0.0028,0.0031,0.0021,0.0003,0.0009,0.0013,0.0074,-0.0039,-0.0039,-0.0039,-0.0039,0,0,0.0343,0.0416,0.0465,0.0671,0.0798,0.094,0.1025,0.1081,0.1131,0.1153,0.1107,0.0882,0.0603,0.0334,0.0117,0.0085,0.0119,0.0101,0.0183,0.0191,0.02,0.0036,0.0135,0,0,0,0,0]}],[{"header":{"parameterUnit":"m.s-1","parameterCategory":2,"la1":30.2991,"la2":30.254,"lo1":-89.0895,"lo2":-89.0444,"dy":0.0017,"dx":0.0017,"nx":28,"ny":28,"refTime":"2023-08-09T09:00:00:Z","depth":"4","parameterNumber":2,"parameterNumberName":"U-component_of_CURRENTS"},"data":[0,0,0,0,0,0,0,0,0,0,0,0,0,0,0,0,0,0,0,0,0,0,0,0,0,0,0,0,0,0,0,0,0,0,0,0,0,0,0,0,0,0,0,0,0,0,0,0,0,0,0,0,0,0,0,0,0,0,-0.0002,-0.0001,0,0.0071,0.0072,0.0072,0.0186,0.0188,0.019,0.0192,0.0316,0.0317,0.0318,0,0,0,0,0,0,0,0,0,0,0,0,0,-0.0114,-0.0112,-0.0002,-0.0001,-0.0,0.0071,0.0072,0.0073,0.0185,0.0188,0.0191,0.0193,0.0315,0.0317,0.0318,0,0,0,0,0,0,0,0,0,0,0,0,0,-0.0056,-0.0111,-0.0002,0.0065,0.0072,0.0071,0.0072,0.0073,0.0185,0.0188,0.0191,0.0194,0.0315,0.0317,0.0319,0.0269,0,0,0.0325,0.0326,0,0,0,0,0,0,0,0,-0.0059,-0.0052,0.0054,0.006,0.0068,0.0123,0.0078,0.0141,0.0184,0.0141,0.0192,0.0196,0.0254,0.0261,0.0267,0.0275,0.028,0.0325,0.0326,0.0327,0.0328,0,0,0,0,0,0,0,-0.0063,-0.0055,0.0026,0.0055,0.0063,0.0067,0.008,0.009,0.018,0.0145,0.0154,0.0162,0.0258,0.0264,0.0271,0.0282,0.0325,0.0327,0.0328,0.0329,0.0386,0.0386,0,0,0,0,0,0,-0.0071,-0.0058,0.0024,0.0029,0.0011,0.0067,0.0081,0.0102,0.0179,0.0194,0.0159,0.0167,0.0259,0.0268,0.0275,0.037,0.0327,0.0329,0.033,0.0385,0.0386,0.0386,0,0,0,0,0,0,-0.0073,-0.0064,0.0021,-0.0014,-0.0002,0.0067,0.0088,0.0101,0.0186,0.0189,0.0205,0.0239,0.0262,0.0272,0.0354,0.0371,0.033,0.0332,0.0385,0.0385,0.0386,0.0465,0,0,0,0,0,0,-0.0077,-0.0065,-0.0032,-0.0014,-0.0,0.0077,0.0086,0.0101,0.0181,0.0194,0.0261,0.0271,0.0265,0.0351,0.0356,0.0373,0.0334,0.0385,0.0385,0.0386,0.0462,0.0468,0.0473,0,0,0,0,0,-0.0081,-0.0048,-0.0031,-0.002,0.0036,0.0079,0.0088,0.0144,0.0183,0.0231,0.0279,0.0274,0.0356,0.0354,0.036,0.0377,0.0384,0.0385,0.0386,0.0459,0.0467,0.0473,0,0,0,0,0,0,-0.0064,-0.0033,-0.0013,0.0033,0.0077,0.01,0.0151,0.0183,0.0256,0.0294,0.0299,0.0312,0.0371,0.0367,0.0365,0.0389,0.0359,0.0361,0.0413,0.042,0.0425,0.0406,0.0335,0,0,0,0,0,-0.0054,-0.002,0.0012,0.0058,0.0087,0.0131,0.0165,0.0209,0.0259,0.0299,0.0346,0.0371,0.0359,0.0395,0.0394,0.0435,0.036,0.0439,0.0445,0.045,0.0435,0.0296,0.0287,0.0388,0.0388,0.0388,0,0,-0.0037,-0.0012,0.0009,0.0064,0.0106,0.0155,0.0164,0.0246,0.0288,0.0296,0.0403,0.0403,0.0371,0.0403,0.0428,0.0422,0.0395,0.0451,0.0455,0.0437,0.0295,0.0285,0.0276,0.0388,0.0388,0.0388,0,0,0.0004,0.0047,0.0088,0.0131,0.0206,0.0223,0.0265,0.0337,0.0381,0.0468,0.0447,0.0455,0.0523,0.0458,0.0434,0.0465,0.0418,0.0495,0.0528,0.0395,0.0385,0.0375,0.0321,0.0305,0.0511,0.0511,0.0512,0,0.0037,0.0087,0.0111,0.0168,0.0212,0.0264,0.0328,0.0358,0.0453,0.0458,0.053,0.0512,0.0515,0.0434,0.0471,0.0472,0.0433,0.0512,0.04,0.0388,0.0376,0.0322,0.0304,0.0515,0.0515,0.0514,0.0514,0,0.0091,0.0158,0.0198,0.0273,0.0317,0.0395,0.0427,0.0487,0.0557,0.0562,0.0567,0.0554,0.0537,0.053,0.0537,0.0444,0.046,0.0412,0.0381,0.037,0.0316,0.0295,0.0521,0.0519,0.0518,0.0517,0,0,0.0119,0.0215,0.0244,0.0297,0.0391,0.0433,0.0483,0.0509,0.0513,0.0591,0.0565,0.0557,0.056,0.0528,0.05,0.0409,0.0332,0.0424,0.0416,0.0371,0.0115,0.0225,0.0213,0.0284,0.028,0.0276,0.0131,0,0.0178,0.0291,0.0316,0.0433,0.0499,0.0533,0.0556,0.0578,0.0596,0.0584,0.0517,0.0513,0.055,0.0566,0.0475,0.0341,0.0275,0.038,0.0132,0.0126,0.0221,0.0189,0.0262,0.0115,0.011,0.0107,0.0104,0,0.0234,0.0303,0.0426,0.0503,0.0534,0.0605,0.0632,0.0661,0.0598,0.0607,0.0565,0.0529,0.043,0.0462,0.0239,0.0326,0.0257,0.0153,0.0144,0.0193,0.0194,0.0113,0.0065,0.0068,0.0071,0.0074,0.0076,0,0.0252,0.038,0.0482,0.0526,0.0611,0.0666,0.0717,0.0692,0.0673,0.0637,0.0598,0.0487,0.0431,0.0294,0.0157,0.0217,-0.0126,-0.0097,-0.0078,-0.0069,-0.016,-0.0149,-0.0269,-0.0269,-0.0268,-0.0268,-0.0267,0,0.0297,0.0386,0.052,0.0586,0.0678,0.0733,0.078,0.0792,0.074,0.0634,0.0643,0.0499,0.039,0.0195,0.0101,-0.0053,-0.0169,-0.0083,-0.0119,-0.0111,-0.0093,-0.0171,-0.0158,-0.0273,-0.0272,-0.0271,-0.027,0,0.0307,0.0398,0.052,0.0655,0.0704,0.079,0.0855,0.0824,0.0818,0.0666,0.0662,0.05,0.0313,0.0166,-0.0102,-0.0119,-0.0297,-0.0327,-0.0286,-0.0317,-0.0112,-0.0093,-0.0267,-0.0265,-0.0263,-0.0262,-0.026,0,0.0317,0.0391,0.0579,0.0647,0.0737,0.0849,0.0867,0.0889,0.0785,0.0595,0.045,0.0323,0.0203,-0.0069,-0.0193,-0.0322,-0.0324,-0.0368,-0.0219,-0.0104,-0.0123,-0.0106,-0.009,-0.0257,-0.0257,-0.0256,-0.0256,0,0.0326,0.0419,0.051,0.0653,0.0742,0.0778,0.0787,0.0709,0.0599,0.0571,0.0317,0.0245,0.0036,-0.0075,-0.0148,-0.0278,-0.0313,-0.0347,-0.0349,-0.0209,-0.0094,-0.0111,-0.0097,-0.0249,-0.025,-0.0251,-0.0251,0,0.0333,0.0387,0.0513,0.0619,0.0712,0.0675,0.0699,0.0574,0.0512,0.0293,0.017,0.0039,-0.0041,-0.0067,-0.0225,-0.0229,-0.0169,-0.0136,-0.0147,-0.0155,-0.0044,0.0123,-0.0013,0,0,0,0,0,0.0323,0.0356,0.0449,0.0533,0.0607,0.063,0.0586,0.055,0.0394,0.0241,0.0237,0.006,-0.0009,-0.009,-0.0061,-0.0171,-0.0192,-0.0137,-0.0163,-0.0213,-0.0221,-0.0095,0,0,0,0,0,0,0.0309,0.0395,0.0417,0.0433,0.0442,0.0457,0.0426,0.0326,0.0238,0.013,0.0098,0.0091,0.0018,-0.0023,-0.0063,-0.0075,-0.0076,-0.0176,-0.0174,-0.0209,-0.0216,-0.0222,-0.0095,0,0,0,0,0]},{"header":{"parameterUnit":"m.s-1","parameterCategory":2,"la1":30.2991,"la2":30.254,"lo1":-89.0895,"lo2":-89.0444,"dy":0.0017,"dx":0.0017,"nx":28,"ny":28,"refTime":"2023-08-09T09:00:00:Z","depth":"4","parameterNumber":3,"parameterNumberName":"V-component_of_CURRENTS"},"data":[0,0,0,0,0,0,0,0,0,0,0,0,0,0,0,0,0,0,0,0,0,0,0,0,0,0,0,0,0,0,0,0,0,0,0,0,0,0,0,0,0,0,0,0,0,0,0,0,0,0,0,0,0,0,0,0,0,0,0.0131,0.0129,0,-0.0062,-0.0065,-0.0068,-0.0155,-0.0155,-0.0154,-0.0153,-0.0404,-0.0411,-0.0419,0,0,0,0,0,0,0,0,0,0,0,0,0,0.0264,0.0263,0.0131,0.0129,0.0127,-0.0062,-0.0065,-0.0068,-0.0156,-0.0155,-0.0154,-0.0153,-0.0402,-0.0411,-0.0419,0,0,0,0,0,0,0,0,0,0,0,0,0,0.0147,0.0262,0.0131,0.0066,0.0059,-0.0061,-0.0065,-0.0069,-0.0156,-0.0155,-0.0153,-0.0152,-0.0399,-0.041,-0.0421,-0.0513,0,0,-0.0455,-0.046,0,0,0,0,0,0,0,0,0.0153,0.0141,0.0077,0.007,0.0062,-0.0078,-0.011,-0.0219,-0.0156,-0.0081,-0.0153,-0.0152,-0.0297,-0.0317,-0.0364,-0.0525,-0.0536,-0.0456,-0.0463,-0.0467,-0.047,0,0,0,0,0,0,0,0.0162,0.0148,0.0048,0.0075,0.0066,-0.0008,-0.0023,-0.0132,-0.02,-0.0088,-0.0093,-0.0105,-0.0302,-0.0353,-0.0371,-0.054,-0.0455,-0.0465,-0.0472,-0.0477,-0.0805,-0.0807,0,0,0,0,0,0,0.0206,0.0156,0.0054,0.0043,0.0119,-0.0011,-0.0027,-0.004,-0.0197,-0.0218,-0.0105,-0.0108,-0.0335,-0.0357,-0.038,-0.0513,-0.0467,-0.0478,-0.0484,-0.0803,-0.0806,-0.0808,0,0,0,0,0,0,0.0209,0.0198,0.0062,0.01,0.0079,-0.0012,-0.0027,-0.0044,-0.0102,-0.0209,-0.0232,-0.0144,-0.0335,-0.0364,-0.0502,-0.0522,-0.0483,-0.0493,-0.0801,-0.0804,-0.0807,-0.0771,0,0,0,0,0,0,0.0214,0.02,0.0189,0.0103,0.0079,-0.0027,-0.0028,-0.0048,-0.0107,-0.0112,-0.025,-0.0272,-0.0336,-0.0485,-0.0513,-0.0537,-0.0502,-0.0798,-0.0802,-0.0806,-0.0769,-0.0772,-0.0775,0,0,0,0,0,0.0219,0.0194,0.019,0.0177,0.0072,-0.0028,-0.0051,-0.0115,-0.0109,-0.0158,-0.0247,-0.0268,-0.0528,-0.0498,-0.053,-0.0557,-0.0796,-0.0801,-0.0806,-0.0768,-0.0772,-0.0775,0,0,0,0,0,0,0.0231,0.0181,0.0175,0.0133,0.0058,-0.0041,-0.0089,-0.012,-0.023,-0.0232,-0.032,-0.0351,-0.0469,-0.0531,-0.0494,-0.0662,-0.0656,-0.0668,-0.0617,-0.0621,-0.0624,-0.0581,-0.0511,0,0,0,0,0,0.0238,0.0211,0.0144,0.0105,0.0076,-0.0003,-0.0052,-0.0094,-0.0187,-0.0233,-0.0323,-0.0418,-0.0515,-0.058,-0.0677,-0.0792,-0.0769,-0.0824,-0.0826,-0.0828,-0.0816,-0.0806,-0.0805,-0.0823,-0.0823,-0.0823,0,0,0.0233,0.0201,0.0185,0.0107,0.0048,-0.0026,-0.0033,-0.011,-0.0175,-0.0246,-0.0369,-0.0439,-0.0548,-0.0665,-0.0721,-0.072,-0.0807,-0.0834,-0.0834,-0.0821,-0.0811,-0.0808,-0.0806,-0.0826,-0.0826,-0.0825,0,0,0.0198,0.0182,0.0144,0.0082,0.0004,-0.005,-0.0067,-0.0167,-0.0212,-0.0333,-0.0385,-0.0461,-0.0634,-0.0699,-0.0756,-0.0836,-0.0817,-0.0871,-0.0862,-0.0852,-0.0849,-0.0846,-0.078,-0.0772,-0.0877,-0.0877,-0.0877,0,0.0195,0.0142,0.0109,0.0046,-0.0005,-0.0056,-0.0125,-0.0193,-0.0327,-0.036,-0.0367,-0.0559,-0.064,-0.0757,-0.078,-0.0837,-0.0811,-0.0835,-0.0849,-0.0846,-0.0843,-0.0777,-0.0768,-0.0876,-0.0876,-0.0876,-0.0876,0,0.0129,0.0076,0.0043,-0.004,-0.0106,-0.0175,-0.0251,-0.0316,-0.0353,-0.0405,-0.0505,-0.0601,-0.07,-0.0738,-0.0791,-0.0832,-0.0809,-0.0841,-0.0823,-0.0838,-0.0769,-0.076,-0.0874,-0.0874,-0.0875,-0.0875,0,0,0.015,0.0026,0.0016,-0.0036,-0.0149,-0.0209,-0.0303,-0.0395,-0.0432,-0.0519,-0.0566,-0.0698,-0.0697,-0.076,-0.0816,-0.0815,-0.0761,-0.0819,-0.0819,-0.0721,-0.0693,-0.07,-0.069,-0.0793,-0.0792,-0.0792,-0.0637,0,0.0107,0.0001,-0.0057,-0.0176,-0.0241,-0.0309,-0.0388,-0.0469,-0.0522,-0.0583,-0.0626,-0.0697,-0.0724,-0.0751,-0.0757,-0.0783,-0.0743,-0.0797,-0.0723,-0.0719,-0.0697,-0.0683,-0.079,-0.063,-0.0628,-0.0627,-0.0626,0,0.0062,-0.0002,-0.0101,-0.0227,-0.0257,-0.0314,-0.041,-0.0488,-0.0568,-0.06,-0.0646,-0.0691,-0.0728,-0.0726,-0.0714,-0.0748,-0.0704,-0.0692,-0.0686,-0.07,-0.0712,-0.0627,-0.0609,-0.061,-0.0611,-0.0613,-0.0614,0,0.0096,-0.004,-0.0106,-0.0153,-0.0293,-0.0318,-0.0372,-0.0462,-0.0514,-0.0576,-0.06,-0.066,-0.0671,-0.0652,-0.0622,-0.0671,-0.0555,-0.0626,-0.057,-0.0567,-0.0617,-0.0623,-0.056,-0.056,-0.056,-0.0561,-0.0561,0,0.0064,-0.0001,-0.0073,-0.0115,-0.017,-0.0263,-0.031,-0.0377,-0.0447,-0.0498,-0.0571,-0.0603,-0.0652,-0.0616,-0.0586,-0.0527,-0.0513,-0.0545,-0.0536,-0.0605,-0.0611,-0.0608,-0.0615,-0.0555,-0.0556,-0.0557,-0.0558,0,0.0072,0.0019,-0.0063,-0.015,-0.0158,-0.0184,-0.0254,-0.0305,-0.0355,-0.0416,-0.0431,-0.0534,-0.0529,-0.0519,-0.0476,-0.0476,-0.0417,-0.0375,-0.0375,-0.0372,-0.0444,-0.0452,-0.0354,-0.0353,-0.0352,-0.0352,-0.0351,0,0.0046,0.002,-0.0044,-0.0058,-0.0086,-0.0117,-0.0152,-0.0232,-0.0287,-0.0371,-0.0404,-0.0429,-0.0487,-0.0402,-0.0407,-0.0328,-0.0332,-0.0269,-0.0441,-0.0425,-0.0426,-0.0436,-0.0444,-0.035,-0.035,-0.035,-0.0349,0,0.0003,0.001,-0.0049,-0.004,-0.0057,-0.0128,-0.0165,-0.0182,-0.0286,-0.0319,-0.0388,-0.0415,-0.041,-0.0425,-0.0331,-0.0284,-0.0321,-0.0263,-0.0268,-0.0429,-0.0419,-0.0423,-0.0433,-0.0347,-0.0347,-0.0348,-0.0348,0,-0.0016,-0.0048,-0.0069,-0.0069,-0.0078,-0.0137,-0.0164,-0.023,-0.0284,-0.0364,-0.0358,-0.0387,-0.0409,-0.0392,-0.03,-0.027,-0.0335,-0.0348,-0.035,-0.0352,-0.0434,-0.0426,-0.0328,0,0,0,0,0,-0.0042,-0.0082,-0.01,-0.0139,-0.0131,-0.0152,-0.0197,-0.0235,-0.0268,-0.0322,-0.0353,-0.0354,-0.0352,-0.0351,-0.0332,-0.0318,-0.0317,-0.0295,-0.033,-0.0333,-0.0336,-0.0438,0,0,0,0,0,0,-0.0086,-0.0108,-0.0128,-0.0162,-0.0181,-0.0237,-0.0262,-0.0308,-0.0339,-0.0348,-0.0343,-0.0355,-0.034,-0.0364,-0.0335,-0.033,-0.0351,-0.0291,-0.0291,-0.0331,-0.0334,-0.0336,-0.0443,0,0,0,0,0]}]]